Inquirer Daily News

Weather

Get conditions and forecasts for any City, State, ZIP code or Country:  
Northeast Philadelphia, PA
on Wednesday, November 14, 2012

Wednesday
Previous Day Next Day
Daily Summary
 ActualAverage (KTTN)Record (KTTN)
Temperature
Mean Temperature °F 46°F  
Max Temperature 48°F 55°F 72°F (1993)
Min Temperature 32°F 38°F 16°F (1986)
Degree Days
Heating Degree Days 25 19  
Month to date heating degree days 235  
Since 1 July heating degree days 632  
Cooling Degree Days 0 0  
Month to date cooling degree days 0  
Year to date cooling degree days 965  
Moisture
Dew Point 25°F   
Average Humidity 58    
Maximum Humidity 73    
Minimum Humidity 39    
Precipitation
Precipitation 0.00 in 0.09 in 1.89 in (1972)
Month to date precipitation 1.45  
Year to date precipitation 40.88  
Wind
Wind Speed 9 mph   
Max Wind Speed 15 mph   
Max Gust Speed 20 mph   
Visibility 10 miles   
Events     

Key: T is trace of precipitation, MM is missing value
Source: NWS Daily Summary
Time(EST)TemperatureDew PointHumidity Pressure Visibility Wind DirectionWind SpeedGust SpeedPrecipitationEvents Conditions
12:54 AM 36.0°F 25.0°F 64% 30.48 in 10.0 miles North 11.5 mph - N/A   Clear
1:54 AM 35.1°F 25.0°F 67% 30.50 in 10.0 miles NNW 9.2 mph - N/A   Mostly Cloudy
2:54 AM 36.0°F 25.0°F 64% 30.51 in 10.0 miles North 9.2 mph - N/A   Overcast
3:54 AM 35.1°F 25.0°F 67% 30.50 in 10.0 miles North 8.1 mph - N/A   Clear
4:54 AM 33.1°F 25.0°F 72% 30.52 in 10.0 miles NNW 6.9 mph - N/A   Clear
5:54 AM 32.0°F 24.1°F 73% 30.52 in 10.0 miles NNW 8.1 mph - N/A   Clear
6:54 AM 32.0°F 24.1°F 73% 30.53 in 10.0 miles NNW 8.1 mph - N/A   Clear
7:54 AM 37.0°F 25.0°F 62% 30.54 in 10.0 miles North 9.2 mph - N/A   Clear
8:54 AM 41.0°F 26.1°F 55% 30.55 in 10.0 miles North 12.7 mph - N/A   Clear
9:54 AM 43.0°F 25.0°F 49% 30.55 in 10.0 miles NNE 15.0 mph - N/A   Clear
10:54 AM 44.1°F 24.1°F 45% 30.54 in 10.0 miles NE 13.8 mph - N/A   Clear
11:54 AM 46.0°F 24.1°F 42% 30.51 in 10.0 miles NNE 9.2 mph 19.6 mph N/A   Clear
12:54 PM 46.9°F 25.0°F 42% 30.49 in 10.0 miles NNE 13.8 mph 17.3 mph N/A   Clear
1:54 PM 48.0°F 24.1°F 39% 30.49 in 10.0 miles North 6.9 mph - N/A   Clear
2:54 PM 48.0°F 26.1°F 42% 30.48 in 10.0 miles NNE 9.2 mph - N/A   Clear
3:54 PM 46.9°F 27.0°F 46% 30.48 in 10.0 miles NE 6.9 mph - N/A   Clear
4:54 PM 42.1°F 28.0°F 58% 30.47 in 10.0 miles NNE 4.6 mph - N/A   Clear
5:54 PM 41.0°F 27.0°F 57% 30.48 in 10.0 miles NNE 3.5 mph - N/A   Clear
6:54 PM 39.9°F 27.0°F 60% 30.49 in 10.0 miles SE 3.5 mph - N/A   Clear
7:54 PM 37.0°F 27.0°F 67% 30.49 in 10.0 miles NNE 4.6 mph - N/A   Clear
8:54 PM 37.0°F 26.1°F 65% 30.47 in 10.0 miles ENE 4.6 mph - N/A   Clear
9:54 PM 37.0°F 23.0°F 57% 30.48 in 10.0 miles NE 3.5 mph - N/A   Clear
10:54 PM 34.0°F 24.1°F 67% 30.48 in 10.0 miles Calm Calm - N/A   Clear
11:54 PM 33.1°F 23.0°F 66% 30.49 in 10.0 miles NE 4.6 mph - N/A   Clear
Astronomy
Sunrise:06:44 AM (EST) Moon Rise:07:31 AM (EST)11/14
Sunset:04:43 PM (EST) Moon Set:05:30 PM (EST)11/14
Moon Phase
Nov. 14 Nov. 20 Nov. 28 Dec. 06 Dec. 13

Copyright © 2014 The Weather Underground, Inc.